User: anonymous   Login
Location: Oshawa
(43.9000°N, 78.8670°W)
Time: 18:03:21
(UTC-05:00)
Language:

Cosmos 1821 Rocket - Orbit

View from above orbital plane
View from above orbital plane
View from above satellite
View from above satellite

Ground track
Ground track

The orbit data is extracted from the following two-line orbital elements,

1 17526U 87017B   14351.11549639  .00000133  00000-0  11919-3 0  1821
2 17526 082.9021 002.4752 0039804 351.7160 068.3330 13.76724091380714
Epoch (UTC): 17 December 2014 02:46:18
Eccentricity: 0.0039804
inclination: 82.9021°
perigee height: 946 km
apogee height: 1005 km
right ascension of ascending node: 2.4752°
argument of perigee: 351.7160°
revolutions per day: 13.76724091
mean anomaly at epoch: 68.3330°
orbit number at epoch: 38071

The dashed part of the orbit path shows where the satellite is in the earth's shadow,  

DLR